Weather History for Tinker AFB, OK

Change the Weather History Date:

Monday, November 12, 2012

  Actual Average Record
Temperature  
Mean Temperature 40 °F -  
Max Temperature 51 °F 57 °F 82 °F (2005)
Min Temperature 29 °F 40 °F 27 °F (2013)
Degree Days  
Heating Degree Days 25    
Moisture  
Dew Point 23 °F    
Average Humidity 55    
Maximum Humidity 80    
Minimum Humidity 29    
Precipitation  
Precipitation 0.00 in - - ()
Sea Level Pressure  
Sea Level Pressure 30.47 in    
Wind  
Wind Speed 5 mph (SW)    
Max Wind Speed 10 mph    
Max Gust Speed -    
Visibility 10 miles    
Events      
Averages and records for this station are not official NWS values.
T = Trace of Precipitation, MM = Missing Value Source: NWS Daily Summary

Daily Weather History Graph

Daily Weather History Graph

Search for Another Location

Airport:

Trip Planner

Search our weather history database for the weather conditions in past years. The results will help you decide how hot, cold, wet, or windy it might be!

Date:

Astronomy

Nov. 12, 2012 Rise Set
Actual Time 7:02 AM CST 5:24 PM CST
Civil Twilight 6:35 AM CST 5:51 PM CST
Nautical Twilight 6:04 AM CST 6:22 PM CST
Astronomical Twilight 5:34 AM CST 6:52 PM CST
Moon 5:31 AM CST (11/12) 4:29 PM CST (11/12)
Length of Visible Light 11h 16m
Length of Day
10h 22m
Waning Crescent, 2% of the Moon is Illuminated
Nov 12
Waning Crescent
Nov 13
New
Nov 20
First Quarter
Nov 28
Full
Dec 6
Last Quarter

Hourly Weather History & Observations

Time (CST) Temp. Windchill Dew Point Humidity Pressure Visibility Wind Dir Wind Speed Gust Speed Precip Events Conditions
12:55 AM 31.5 °F 22.9 °F 24.4 °F 75% 30.33 in 10.0 mi North 10.4 mph - N/A   Clear
1:55 AM 32.0 °F 24.8 °F 23.2 °F 70% 30.35 in 10.0 mi North 8.1 mph - N/A   Clear
2:55 AM 29.8 °F 24.9 °F 23.4 °F 77% 30.38 in 10.0 mi NNW 4.6 mph - N/A   Clear
3:55 AM 30.4 °F 26.9 °F 23.5 °F 76% 30.40 in 10.0 mi NNW 3.5 mph - N/A   Clear
4:55 AM 29.5 °F 24.5 °F 23.9 °F 80% 30.43 in 10.0 mi NW 4.6 mph - N/A   Clear
5:55 AM 29.7 °F - 23.2 °F 77% 30.45 in 10.0 mi Calm Calm - N/A   Clear
6:55 AM 30.7 °F - 23.5 °F 75% 30.46 in 10.0 mi Calm Calm - N/A   Clear
7:55 AM 31.3 °F - 24.3 °F 75% 30.48 in 10.0 mi Calm Calm - N/A   Clear
8:55 AM 35.6 °F - 23.2 °F 61% 30.50 in 10.0 mi Calm Calm - N/A   Clear
9:55 AM 39.9 °F 37.8 °F 21.7 °F 48% 30.52 in 10.0 mi SW 3.5 mph - N/A   Clear
10:13 AM 41.0 °F 38.0 °F 21.2 °F 45% 30.52 in 10.0 mi Variable 4.6 mph - N/A   Light Drizzle
10:22 AM 41.0 °F 39.0 °F 21.2 °F 45% 30.52 in 10.0 mi SSW 3.5 mph - N/A   Clear
10:55 AM 42.6 °F - 20.8 °F 42% 30.52 in 10.0 mi Calm Calm - 0.00 in   Clear
11:55 AM 45.5 °F 43.2 °F 19.8 °F 36% 30.52 in 10.0 mi Variable 4.6 mph - N/A   Clear
12:55 PM 47.8 °F - 19.9 °F 33% 30.49 in 10.0 mi SSW 4.6 mph - N/A   Clear
1:55 PM 50.0 °F - 21.7 °F 33% 30.47 in 10.0 mi SW 6.9 mph - N/A   Clear
2:55 PM 51.1 °F - 20.3 °F 30% 30.46 in 10.0 mi Variable 3.5 mph - N/A   Clear
3:55 PM 51.3 °F - 19.6 °F 29% 30.46 in 10.0 mi WSW 3.5 mph - N/A   Clear
4:55 PM 50.4 °F - 21.4 °F 32% 30.47 in 10.0 mi SW 4.6 mph - N/A   Clear
5:55 PM 44.6 °F 42.2 °F 24.4 °F 45% 30.47 in 10.0 mi SSW 4.6 mph - N/A   Clear
6:55 PM 44.1 °F 42.5 °F 22.6 °F 43% 30.48 in 10.0 mi South 3.5 mph - N/A   Clear
7:55 PM 41.0 °F 36.4 °F 25.9 °F 55% 30.48 in 10.0 mi SSE 6.9 mph - N/A   Clear
8:55 PM 38.1 °F 32.3 °F 27.7 °F 66% 30.49 in 10.0 mi SSE 8.1 mph - N/A   Clear
9:55 PM 35.8 °F 28.8 °F 25.0 °F 65% 30.51 in 10.0 mi South 9.2 mph - N/A   Clear
10:55 PM 36.0 °F 29.6 °F 24.6 °F 63% 30.51 in 10.0 mi South 8.1 mph - N/A   Clear
11:55 PM 35.4 °F 28.4 °F 24.4 °F 64% 30.50 in 10.0 mi South 9.2 mph - N/A   Clear